Location: Gollag?dem
(16.8053°N, 80.8024°E)
Time: 10:19:49
(UTC+00:00)

Cosmos 494 Rocket - Pass Details

Date: 13 August 2020
Orbit: 742 x 771 km, 74.1° (Epoch: 18 September)

Event Time Altitude Azimuth Distance (km) Brightness Sun altitude
Rises 22:25:51 0° 350° (N) 3,203 7.4 -26.5°
Reaches altitude 10° 22:28:13 10° 352° (N) 2,281 6.6 -26.0°
Maximum altitude 22:33:23 72° 76° (ENE) 800 4.1 -24.9°
Drops below altitude 10° 22:38:34 10° 161° (SSE) 2,295 6.4 -23.7°
Sets 22:40:57 0° 163° (SSE) 3,223 7.2 -23.2°
